| time (UTC) | temp C | wind direction | speed KPH | gust KPH | rain 1hr cm | rain 24hr cm | rain mn cm | humidity % | barometer mb |
| 20260906131551 | 24 | 69 | 0.0 | 1.6 | 0.00 | 0.18 | 0.00 | 85 | 1015.1 |
| 20260906130053 | 23 | 0 | 0.0 | 1.6 | 0.00 | 0.18 | 0.00 | 85 | 1015.1 |
| 20260906124549 | 23 | 0 | 0.0 | 1.6 | 0.00 | 0.18 | 0.00 | 85 | 1015.0 |
| 20260906123113 | 23 | 69 | 0.0 | 1.6 | 0.00 | 0.18 | 0.00 | 86 | 1014.8 |
| 20260906121544 | 22 | 0 | 0.0 | 3.2 | 0.00 | 0.18 | 0.00 | 86 | 1014.7 |
| 20260906120057 | 22 | 0 | 0.0 | 0.0 | 0.00 | 0.18 | 0.00 | 88 | 1014.5 |
| 20260906114547 | 22 | 80 | 1.6 | 6.4 | 0.00 | 0.18 | 0.00 | 87 | 1014.4 |
| 20260906113046 | 22 | 90 | 0.0 | 3.2 | 0.00 | 0.18 | 0.00 | 87 | 1014.3 |
| 20260906111544 | 22 | 95 | 0.0 | 1.6 | 0.00 | 0.18 | 0.00 | 88 | 1014.4 |
| 20260906110044 | 22 | 0 | 0.0 | 0.0 | 0.00 | 0.18 | 0.00 | 89 | 1014.1 |
| 20260906104549 | 22 | 0 | 0.0 | 0.0 | 0.00 | 0.18 | 0.00 | 89 | 1013.9 |
| 20260906103048 | 22 | 0 | 0.0 | 1.6 | 0.00 | 0.18 | 0.00 | 90 | 1013.8 |
| 20260906101553 | 22 | 0 | 0.0 | 1.6 | 0.00 | 0.18 | 0.00 | 89 | 1014.0 |
| 20260906100053 | 22 | 0 | 0.0 | 1.6 | 0.00 | 0.18 | 0.00 | 89 | 1013.8 |
| 20260906094602 | 22 | 59 | 0.0 | 3.2 | 0.00 | 0.18 | 0.00 | 89 | 1014.0 |
| 20260906093049 | 21 | 70 | 0.0 | 1.6 | 0.00 | 0.18 | 0.00 | 90 | 1014.3 |
| 20260906091603 | 21 | 0 | 0.0 | 3.2 | 0.00 | 0.18 | 0.00 | 90 | 1014.4 |
| 20260906090048 | 21 | 0 | 0.0 | 0.0 | 0.00 | 0.18 | 0.00 | 89 | 1014.2 |
| 20260906084545 | 21 | 0 | 0.0 | 1.6 | 0.00 | 0.18 | 0.00 | 89 | 1014.0 |
| 20260906083045 | 21 | 0 | 0.0 | 1.6 | 0.00 | 0.18 | 0.00 | 90 | 1013.8 |
| 20260906081545 | 21 | 0 | 0.0 | 3.2 | 0.00 | 0.18 | 0.00 | 89 | 1014.0 |
| 20260906080054 | 21 | 0 | 0.0 | 1.6 | 0.00 | 0.18 | 0.00 | 89 | 1014.4 |
| 20260906074550 | 21 | 215 | 0.0 | 1.6 | 0.00 | 0.18 | 0.00 | 89 | 1014.4 |
| 20260906073055 | 21 | 0 | 0.0 | 0.0 | 0.00 | 0.18 | 0.00 | 90 | 1014.5 |
| 20260906071545 | 21 | 155 | 0.0 | 1.6 | 0.00 | 0.18 | 0.00 | 90 | 1014.4 |
| 20260906070044 | 21 | 0 | 0.0 | 0.0 | 0.00 | 0.18 | 0.00 | 91 | 1014.7 |
| 20260906064546 | 22 | 155 | 0.0 | 0.0 | 0.00 | 0.18 | 0.00 | 90 | 1014.5 |
| 20260906063046 | 22 | 0 | 0.0 | 1.6 | 0.00 | 0.18 | 0.00 | 90 | 1014.5 |
| 20260906061548 | 22 | 167 | 0.0 | 1.6 | 0.00 | 0.18 | 0.00 | 89 | 1014.7 |
| 20260906060052 | 22 | 0 | 0.0 | 1.6 | 0.00 | 0.18 | 0.00 | 89 | 1014.9 |
| 20260906054546 | 22 | 170 | 1.6 | 4.8 | 0.00 | 0.18 | 0.00 | 88 | 1015.0 |
| 20260906053059 | 22 | 141 | 3.2 | 8.0 | 0.00 | 0.18 | 0.00 | 87 | 1015.0 |
| 20260906051545 | 23 | 167 | 3.2 | 9.7 | 0.00 | 0.18 | 0.00 | 87 | 1015.2 |
| 20260906050056 | 23 | 147 | 1.6 | 9.7 | 0.18 | 0.18 | 0.00 | 87 | 1015.7 |
| 20260906044545 | 23 | 0 | 0.0 | 1.6 | 0.18 | 0.18 | 0.18 | 88 | 1015.0 |
| 20260906043100 | 23 | 236 | 0.0 | 3.2 | 0.18 | 0.18 | 0.18 | 88 | 1014.5 |
| 20260906041544 | 25 | 0 | 0.0 | 3.2 | 0.15 | 0.15 | 0.15 | 84 | 1014.5 |
| 20260906040050 | 26 | 0 | 0.0 | 0.0 | 0.00 | 0.00 | 0.00 | 73 | 1014.4 |
| 20260906034545 | 26 | 0 | 0.0 | 0.0 | 0.00 | 0.00 | 0.00 | 73 | 1014.6 |
| 20260906033055 | 26 | 0 | 0.0 | 0.0 | 0.00 | 0.00 | 0.00 | 75 | 1014.6 |
| 20260906031543 | 26 | 0 | 0.0 | 0.0 | 0.00 | 0.00 | 0.00 | 76 | 1014.3 |
| 20260906030050 | 26 | 0 | 0.0 | 0.0 | 0.00 | 0.00 | 0.00 | 74 | 1014.3 |
| 20260906024550 | 27 | 0 | 0.0 | 0.0 | 0.00 | 0.00 | 0.00 | 73 | 1014.1 |
| 20260906023051 | 27 | 165 | 0.0 | 0.0 | 0.00 | 0.00 | 0.00 | 73 | 1013.8 |
| 20260906021543 | 27 | 165 | 0.0 | 0.0 | 0.00 | 0.00 | 0.00 | 74 | 1013.6 |
| 20260906020104 | 27 | 0 | 0.0 | 0.0 | 0.00 | 0.00 | 0.00 | 72 | 1013.4 |
| 20260906014546 | 27 | 165 | 0.0 | 0.0 | 0.00 | 0.00 | 0.00 | 71 | 1013.2 |
| 20260906013106 | 28 | 0 | 0.0 | 1.6 | 0.00 | 0.00 | 0.00 | 69 | 1013.2 |
| 20260906011558 | 28 | 164 | 0.0 | 1.6 | 0.00 | 0.00 | 0.00 | 69 | 1013.7 |
| 20260906010045 | 28 | 164 | 1.6 | 4.8 | 0.00 | 0.00 | 0.00 | 69 | 1013.7 |
| 20260906004556 | 30 | 0 | 0.0 | 0.0 | 0.00 | 0.00 | 0.00 | 68 | 1013.6 |
| 20260906003046 | 30 | 0 | 0.0 | 1.6 | 0.00 | 0.00 | 0.00 | 66 | 1013.2 |
| 20260906001546 | 30 | 0 | 0.0 | 1.6 | 0.00 | 0.00 | 0.00 | 65 | 1013.1 |
| 20260906000058 | 30 | 0 | 0.0 | 1.6 | 0.00 | 0.00 | 0.00 | 66 | 1013.2 |
| 20260905234548 | 31 | 0 | 0.0 | 1.6 | 0.00 | 0.00 | 0.00 | 63 | 1013.1 |
| 20260905233044 | 31 | 0 | 0.0 | 1.6 | 0.00 | 0.00 | 0.00 | 62 | 1013.2 |
| 20260905231546 | 31 | 0 | 0.0 | 1.6 | 0.00 | 0.00 | 0.00 | 61 | 1013.0 |
| 20260905230054 | 31 | 0 | 0.0 | 1.6 | 0.00 | 0.00 | 0.00 | 60 | 1013.1 |
| 20260905224551 | 31 | 240 | 0.0 | 1.6 | 0.00 | 0.00 | 0.00 | 59 | 1013.0 |
| 20260905223047 | 32 | 240 | 0.0 | 1.6 | 0.00 | 0.00 | 0.00 | 59 | 1013.1 |
| 20260905221544 | 32 | 240 | 0.0 | 1.6 | 0.00 | 0.00 | 0.00 | 58 | 1013.2 |
| 20260905220054 | 32 | 0 | 0.0 | 1.6 | 0.00 | 0.00 | 0.00 | 56 | 1013.1 |
| 20260905214547 | 33 | 0 | 0.0 | 3.2 | 0.00 | 0.00 | 0.00 | 56 | 1013.2 |
| 20260905213043 | 33 | 0 | 0.0 | 1.6 | 0.00 | 0.00 | 0.00 | 57 | 1013.3 |
| 20260905211553 | 32 | 244 | 0.0 | 1.6 | 0.00 | 0.00 | 0.00 | 59 | 1013.3 |
| 20260905210048 | 32 | 313 | 0.0 | 1.6 | 0.00 | 0.00 | 0.00 | 59 | 1013.3 |
| 20260905204558 | 32 | 260 | 0.0 | 3.2 | 0.00 | 0.00 | 0.00 | 58 | 1013.6 |
| 20260905203046 | 33 | 255 | 0.0 | 3.2 | 0.00 | 0.00 | 0.00 | 58 | 1013.7 |
| 20260905201555 | 33 | 227 | 0.0 | 1.6 | 0.00 | 0.00 | 0.00 | 56 | 1014.0 |
| 20260905200044 | 32 | 224 | 0.0 | 1.6 | 0.00 | 0.00 | 0.00 | 57 | 1014.3 |
| 20260905194559 | 33 | 0 | 0.0 | 3.2 | 0.00 | 0.00 | 0.00 | 57 | 1014.5 |
| 20260905193044 | 33 | 0 | 0.0 | 1.6 | 0.00 | 0.00 | 0.00 | 59 | 1014.5 |
| 20260905191547 | 32 | 246 | 1.6 | 3.2 | 0.00 | 0.00 | 0.00 | 62 | 1014.9 |
| 20260905190052 | 33 | 0 | 0.0 | 4.8 | 0.00 | 0.00 | 0.00 | 63 | 1015.0 |
| 20260905184610 | 33 | 33 | 0.0 | 6.4 | 0.00 | 0.00 | 0.00 | 57 | 1015.2 |
| 20260905183050 | 33 | 0 | 0.0 | 1.6 | 0.00 | 0.00 | 0.00 | 58 | 1015.4 |
| 20260905181552 | 33 | 81 | 0.0 | 6.4 | 0.00 | 0.00 | 0.00 | 60 | 1015.7 |
| 20260905180053 | 33 | 347 | 0.0 | 4.8 | 0.00 | 0.00 | 0.00 | 61 | 1015.7 |
| 20260905174547 | 33 | 130 | 0.0 | 4.8 | 0.00 | 0.00 | 0.00 | 61 | 1015.8 |
| 20260905173044 | 32 | 72 | 0.0 | 3.2 | 0.00 | 0.00 | 0.00 | 62 | 1015.9 |
| 20260905171544 | 32 | 71 | 1.6 | 3.2 | 0.00 | 0.00 | 0.00 | 62 | 1016.1 |
| 20260905170050 | 32 | 68 | 0.0 | 3.2 | 0.00 | 0.00 | 0.00 | 63 | 1016.2 |
| 20260905164546 | 31 | 82 | 1.6 | 3.2 | 0.00 | 0.00 | 0.00 | 67 | 1016.5 |
| 20260905163045 | 31 | 69 | 1.6 | 4.8 | 0.00 | 0.00 | 0.00 | 66 | 1016.6 |
| 20260905161554 | 30 | 0 | 0.0 | 3.2 | 0.00 | 0.00 | 0.00 | 68 | 1016.8 |
| 20260905160053 | 30 | 316 | 0.0 | 1.6 | 0.00 | 0.00 | 0.00 | 72 | 1016.9 |
| 20260905154608 | 29 | 0 | 0.0 | 1.6 | 0.00 | 0.00 | 0.00 | 74 | 1017.1 |
| 20260905153044 | 28 | 337 | 0.0 | 1.6 | 0.00 | 0.00 | 0.00 | 76 | 1017.0 |
| 20260905151547 | 28 | 0 | 0.0 | 1.6 | 0.00 | 0.00 | 0.00 | 77 | 1017.0 |
| 20260905150046 | 27 | 0 | 0.0 | 1.6 | 0.00 | 0.00 | 0.00 | 78 | 1017.1 |
| 20260905144544 | 27 | 0 | 0.0 | 0.0 | 0.00 | 0.00 | 0.00 | 80 | 1017.2 |
| 20260905143046 | 27 | 0 | 0.0 | 0.0 | 0.00 | 0.00 | 0.00 | 78 | 1017.2 |
| 20260905141543 | 26 | 0 | 0.0 | 0.0 | 0.00 | 0.00 | 0.00 | 77 | 1017.1 |
| 20260905140047 | 26 | 0 | 0.0 | 0.0 | 0.00 | 0.00 | 0.00 | 78 | 1017.1 |
| 20260905134542 | 25 | 0 | 0.0 | 0.0 | 0.00 | 0.00 | 0.00 | 82 | 1017.1 |
| 20260905133049 | 25 | 0 | 0.0 | 0.0 | 0.00 | 0.00 | 0.00 | 83 | 1017.1 |